Year,Month,Day,Hour,Minute,Value (Times are PST for temperature in C)
2020,12,04,00,00,6.60
2020,12,04,00,01,6.60
2020,12,04,00,02,6.60
2020,12,04,00,03,6.60
2020,12,04,00,04,6.60
2020,12,04,00,05,6.60
2020,12,04,00,06,6.60
2020,12,04,00,07,6.60
2020,12,04,00,08,6.50
2020,12,04,00,09,6.50
2020,12,04,00,10,6.50
2020,12,04,00,11,6.50
2020,12,04,00,12,6.50
2020,12,04,00,13,6.40
2020,12,04,00,14,6.40
2020,12,04,00,15,6.40
2020,12,04,00,16,6.40
2020,12,04,00,17,6.40
2020,12,04,00,18,6.40
2020,12,04,00,19,6.30
2020,12,04,00,20,6.30
2020,12,04,00,21,6.30
2020,12,04,00,22,6.30
2020,12,04,00,23,6.30
2020,12,04,00,24,6.20
2020,12,04,00,25,6.20
2020,12,04,00,26,6.20
2020,12,04,00,27,6.20
2020,12,04,00,28,6.10
2020,12,04,00,29,6.10
2020,12,04,00,30,6.10
2020,12,04,00,31,6.10
2020,12,04,00,32,6.00
2020,12,04,00,33,6.00
2020,12,04,00,34,6.00
2020,12,04,00,35,5.90
2020,12,04,00,36,5.90
2020,12,04,00,37,5.90
2020,12,04,00,38,5.90
2020,12,04,00,39,5.80
2020,12,04,00,40,5.80
2020,12,04,00,41,5.80
2020,12,04,00,42,5.70
2020,12,04,00,43,5.70
2020,12,04,00,44,5.60
2020,12,04,00,45,5.60
2020,12,04,00,46,5.60
2020,12,04,00,47,5.60
2020,12,04,00,48,5.50
2020,12,04,00,49,5.50
2020,12,04,00,50,5.50
2020,12,04,00,51,5.40
2020,12,04,00,52,5.40
2020,12,04,00,53,5.40
2020,12,04,00,54,5.30
2020,12,04,00,55,5.30
2020,12,04,00,56,5.30
2020,12,04,00,57,5.30
2020,12,04,00,58,5.20
2020,12,04,00,59,5.20
2020,12,04,01,00,5.20
2020,12,04,01,01,5.20
2020,12,04,01,02,5.10
2020,12,04,01,03,5.10
2020,12,04,01,04,5.10
2020,12,04,01,05,5.10
2020,12,04,01,06,5.00
2020,12,04,01,07,5.00
2020,12,04,01,08,5.00
2020,12,04,01,09,4.90
2020,12,04,01,10,4.90
2020,12,04,01,11,4.90
2020,12,04,01,12,4.90
2020,12,04,01,13,4.90
2020,12,04,01,14,4.90
2020,12,04,01,15,4.80
2020,12,04,01,16,4.80
2020,12,04,01,17,4.80
2020,12,04,01,18,4.80
2020,12,04,01,19,4.80
2020,12,04,01,20,4.80
2020,12,04,01,21,4.70
2020,12,04,01,22,4.70
2020,12,04,01,23,4.70
2020,12,04,01,24,4.70
2020,12,04,01,25,4.70
2020,12,04,01,26,4.60
2020,12,04,01,27,4.60
2020,12,04,01,28,4.60
2020,12,04,01,29,4.60
2020,12,04,01,30,4.50
2020,12,04,01,31,4.50
2020,12,04,01,32,4.50
2020,12,04,01,33,4.50
2020,12,04,01,34,4.40
2020,12,04,01,35,4.40
2020,12,04,01,36,4.40
2020,12,04,01,37,4.40
2020,12,04,01,38,4.40
2020,12,04,01,39,4.40
2020,12,04,01,40,4.40
2020,12,04,01,41,4.30
2020,12,04,01,42,4.30
2020,12,04,01,43,4.30
2020,12,04,01,44,4.30
2020,12,04,01,45,4.30
2020,12,04,01,46,4.30
2020,12,04,01,47,4.20
2020,12,04,01,48,4.20
2020,12,04,01,49,4.20
2020,12,04,01,50,4.20
2020,12,04,01,51,4.20
2020,12,04,01,52,4.20
2020,12,04,01,53,4.20
2020,12,04,01,54,4.20
2020,12,04,01,55,4.20
2020,12,04,01,56,4.20
2020,12,04,01,57,4.20
2020,12,04,01,58,4.20
2020,12,04,01,59,4.20
2020,12,04,02,00,4.20
2020,12,04,02,01,4.20
2020,12,04,02,02,4.20
2020,12,04,02,03,4.20
2020,12,04,02,04,4.20
2020,12,04,02,05,4.20
2020,12,04,02,06,4.20
2020,12,04,02,07,4.20
2020,12,04,02,08,4.20
2020,12,04,02,09,4.20
2020,12,04,02,10,4.20
2020,12,04,02,11,4.20
2020,12,04,02,12,4.20
2020,12,04,02,13,4.20
2020,12,04,02,14,4.20
2020,12,04,02,15,4.10
2020,12,04,02,16,4.10
2020,12,04,02,17,4.10
2020,12,04,02,18,4.10
2020,12,04,02,19,4.10
2020,12,04,02,20,4.10
2020,12,04,02,21,4.00
2020,12,04,02,22,4.00
2020,12,04,02,23,4.00
2020,12,04,02,24,3.90
2020,12,04,02,25,3.90
2020,12,04,02,26,3.90
2020,12,04,02,27,3.80
2020,12,04,02,28,3.80
2020,12,04,02,29,3.80
2020,12,04,02,30,3.70
2020,12,04,02,31,3.70
2020,12,04,02,32,3.70
2020,12,04,02,33,3.70
2020,12,04,02,34,3.70
2020,12,04,02,35,3.70
2020,12,04,02,36,3.70
2020,12,04,02,37,3.70
2020,12,04,02,38,3.60
2020,12,04,02,39,3.60
2020,12,04,02,40,3.60
2020,12,04,02,41,3.60
2020,12,04,02,42,3.60
2020,12,04,02,43,3.60
2020,12,04,02,44,3.60
2020,12,04,02,45,3.60
2020,12,04,02,46,3.60
2020,12,04,02,47,3.60
2020,12,04,02,48,3.60
2020,12,04,02,49,3.60
2020,12,04,02,50,3.60
2020,12,04,02,51,3.60
2020,12,04,02,52,3.60
2020,12,04,02,53,3.60
2020,12,04,02,54,3.60
2020,12,04,02,55,3.50
2020,12,04,02,56,3.50
2020,12,04,02,57,3.50
2020,12,04,02,58,3.40
2020,12,04,02,59,3.40
2020,12,04,03,00,3.40
2020,12,04,03,01,3.40
2020,12,04,03,02,3.40
2020,12,04,03,03,3.40
2020,12,04,03,04,3.40
2020,12,04,03,05,3.40
2020,12,04,03,06,3.40
2020,12,04,03,07,3.40
2020,12,04,03,08,3.40
2020,12,04,03,09,3.40
2020,12,04,03,10,3.40
2020,12,04,03,11,3.40
2020,12,04,03,12,3.30
2020,12,04,03,13,3.30
2020,12,04,03,14,3.30
2020,12,04,03,15,3.30
2020,12,04,03,16,3.30
2020,12,04,03,17,3.30
2020,12,04,03,18,3.30
2020,12,04,03,19,3.30
2020,12,04,03,20,3.30
2020,12,04,03,21,3.30
2020,12,04,03,22,3.20
2020,12,04,03,23,3.20
2020,12,04,03,24,3.20
2020,12,04,03,25,3.20
2020,12,04,03,26,3.20
2020,12,04,03,27,3.20
2020,12,04,03,28,3.20
2020,12,04,03,29,3.20
2020,12,04,03,30,3.20
2020,12,04,03,31,3.20
2020,12,04,03,32,3.10
2020,12,04,03,33,3.10
2020,12,04,03,34,3.10
2020,12,04,03,35,3.20
2020,12,04,03,36,3.20
2020,12,04,03,37,3.20
2020,12,04,03,38,3.20
2020,12,04,03,39,3.20
2020,12,04,03,40,3.20
2020,12,04,03,41,3.20
2020,12,04,03,42,3.20
2020,12,04,03,43,3.20
2020,12,04,03,44,3.10
2020,12,04,03,45,3.10
2020,12,04,03,46,3.10
2020,12,04,03,47,3.10
2020,12,04,03,48,3.10
2020,12,04,03,49,3.10
2020,12,04,03,50,3.00
2020,12,04,03,51,3.00
2020,12,04,03,52,3.00
2020,12,04,03,53,3.00
2020,12,04,03,54,3.10
2020,12,04,03,55,3.10
2020,12,04,03,56,3.10
2020,12,04,03,57,3.10
2020,12,04,03,58,3.10
2020,12,04,03,59,3.10
2020,12,04,04,00,3.10
2020,12,04,04,01,3.10
2020,12,04,04,02,3.00
2020,12,04,04,03,3.00
2020,12,04,04,04,3.00
2020,12,04,04,05,3.00
2020,12,04,04,06,2.90
2020,12,04,04,07,2.90
2020,12,04,04,08,2.90
2020,12,04,04,09,2.90
2020,12,04,04,10,2.90
2020,12,04,04,11,2.90
2020,12,04,04,12,2.80
2020,12,04,04,13,2.80
2020,12,04,04,14,2.80
2020,12,04,04,15,2.80
2020,12,04,04,16,2.80
2020,12,04,04,17,2.80
2020,12,04,04,18,2.80
2020,12,04,04,19,2.80
2020,12,04,04,20,2.70
2020,12,04,04,21,2.70
2020,12,04,04,22,2.70
2020,12,04,04,23,2.70
2020,12,04,04,24,2.70
2020,12,04,04,25,2.70
2020,12,04,04,26,2.70
2020,12,04,04,27,2.70
2020,12,04,04,28,2.70
2020,12,04,04,29,2.70
2020,12,04,04,30,2.70
2020,12,04,04,31,2.70
2020,12,04,04,32,2.70
2020,12,04,04,33,2.70
2020,12,04,04,34,2.70
2020,12,04,04,35,2.70
2020,12,04,04,36,2.80
2020,12,04,04,37,2.80
2020,12,04,04,38,2.80
2020,12,04,04,39,2.80
2020,12,04,04,40,2.80
2020,12,04,04,41,2.80
2020,12,04,04,42,2.80
2020,12,04,04,43,2.80
2020,12,04,04,44,2.80
2020,12,04,04,45,2.80
2020,12,04,04,46,2.80
2020,12,04,04,47,2.70
2020,12,04,04,48,2.70
2020,12,04,04,49,2.70
2020,12,04,04,50,2.70
2020,12,04,04,51,2.70
2020,12,04,04,52,2.70
2020,12,04,04,53,2.60
2020,12,04,04,54,2.60
2020,12,04,04,55,2.60
2020,12,04,04,56,2.60
2020,12,04,04,57,2.60
2020,12,04,04,58,2.60
2020,12,04,04,59,2.60
2020,12,04,05,00,2.60
2020,12,04,05,01,2.50
2020,12,04,05,02,2.60
2020,12,04,05,03,2.60
2020,12,04,05,04,2.60
2020,12,04,05,05,2.60
2020,12,04,05,06,2.60
2020,12,04,05,07,2.60
2020,12,04,05,08,2.60
2020,12,04,05,09,2.60
2020,12,04,05,10,2.60
2020,12,04,05,11,2.60
2020,12,04,05,12,2.60
2020,12,04,05,13,2.60
2020,12,04,05,14,2.60
2020,12,04,05,15,2.60
2020,12,04,05,16,2.60
2020,12,04,05,17,2.60
2020,12,04,05,18,2.60
2020,12,04,05,19,2.60
2020,12,04,05,20,2.60
2020,12,04,05,21,2.60
2020,12,04,05,22,2.50
2020,12,04,05,23,2.60
2020,12,04,05,24,2.60
2020,12,04,05,25,2.60
2020,12,04,05,26,2.60
2020,12,04,05,27,2.60
2020,12,04,05,28,2.60
2020,12,04,05,29,2.60
2020,12,04,05,30,2.70
2020,12,04,05,31,2.70
2020,12,04,05,32,2.70
2020,12,04,05,33,2.70
2020,12,04,05,34,2.70
2020,12,04,05,35,2.70
2020,12,04,05,36,2.70
2020,12,04,05,37,2.70
2020,12,04,05,38,2.70
2020,12,04,05,39,2.70
2020,12,04,05,40,2.70
2020,12,04,05,41,2.70
2020,12,04,05,42,2.70
2020,12,04,05,43,2.70
2020,12,04,05,44,2.60
2020,12,04,05,45,2.60
2020,12,04,05,46,2.60
2020,12,04,05,47,2.60
2020,12,04,05,48,2.60
2020,12,04,05,49,2.60
2020,12,04,05,50,2.60
2020,12,04,05,51,2.60
2020,12,04,05,52,2.60
2020,12,04,05,53,2.60
2020,12,04,05,54,2.60
2020,12,04,05,55,2.60
2020,12,04,05,56,2.60
2020,12,04,05,57,2.60
2020,12,04,05,58,2.60
2020,12,04,05,59,2.60
2020,12,04,06,00,2.60
2020,12,04,06,01,2.60
2020,12,04,06,02,2.60
2020,12,04,06,03,2.60
2020,12,04,06,04,2.60
2020,12,04,06,05,2.60
2020,12,04,06,06,2.60
2020,12,04,06,07,2.60
2020,12,04,06,08,2.60
2020,12,04,06,09,2.60
2020,12,04,06,10,2.60
2020,12,04,06,11,2.60
2020,12,04,06,12,2.60
2020,12,04,06,13,2.60
2020,12,04,06,14,2.70
2020,12,04,06,15,2.70
2020,12,04,06,16,2.70
2020,12,04,06,17,2.70
2020,12,04,06,18,2.60
2020,12,04,06,19,2.60
2020,12,04,06,20,2.60
2020,12,04,06,21,2.60
2020,12,04,06,22,2.60
2020,12,04,06,23,2.60
2020,12,04,06,24,2.60
2020,12,04,06,25,2.50
2020,12,04,06,26,2.50
2020,12,04,06,27,2.50
2020,12,04,06,28,2.50
2020,12,04,06,29,2.40
2020,12,04,06,30,2.40
2020,12,04,06,31,2.40
2020,12,04,06,32,2.40
2020,12,04,06,33,2.40
2020,12,04,06,34,2.40
2020,12,04,06,35,2.40
2020,12,04,06,36,2.40
2020,12,04,06,37,2.40
2020,12,04,06,38,2.40
2020,12,04,06,39,2.40
2020,12,04,06,40,2.40
2020,12,04,06,41,2.40
2020,12,04,06,42,2.40
2020,12,04,06,43,2.40
2020,12,04,06,44,2.40
2020,12,04,06,45,2.40
2020,12,04,06,46,2.40
2020,12,04,06,47,2.40
2020,12,04,06,48,2.40
2020,12,04,06,49,2.40
2020,12,04,06,50,2.40
2020,12,04,06,51,2.40
2020,12,04,06,52,2.40
2020,12,04,06,53,2.40
2020,12,04,06,54,2.30
2020,12,04,06,55,2.30
2020,12,04,06,56,2.30
2020,12,04,06,57,2.30
2020,12,04,06,58,2.30
2020,12,04,06,59,2.20
2020,12,04,07,00,2.20
2020,12,04,07,01,2.20
2020,12,04,07,02,2.20
2020,12,04,07,03,2.20
2020,12,04,07,04,2.20
2020,12,04,07,05,2.20
2020,12,04,07,06,2.20
2020,12,04,07,07,2.20
2020,12,04,07,08,2.10
2020,12,04,07,09,2.10
2020,12,04,07,10,2.10
2020,12,04,07,11,2.20
2020,12,04,07,12,2.10
2020,12,04,07,13,2.10
2020,12,04,07,14,2.10
2020,12,04,07,15,2.10
2020,12,04,07,16,2.20
2020,12,04,07,17,2.20
2020,12,04,07,18,2.20
2020,12,04,07,19,2.20
2020,12,04,07,20,2.20
2020,12,04,07,21,2.20
2020,12,04,07,22,2.20
2020,12,04,07,23,2.20
2020,12,04,07,24,2.20
2020,12,04,07,25,2.20
2020,12,04,07,26,2.20
2020,12,04,07,27,2.10
2020,12,04,07,28,2.10
2020,12,04,07,29,2.10
2020,12,04,07,30,2.10
2020,12,04,07,31,2.10
2020,12,04,07,32,2.10
2020,12,04,07,33,2.10
2020,12,04,07,34,2.10
2020,12,04,07,35,2.10
2020,12,04,07,36,2.10
2020,12,04,07,37,2.10
2020,12,04,07,38,2.10
2020,12,04,07,39,2.10
2020,12,04,07,40,2.10
2020,12,04,07,41,2.10
2020,12,04,07,42,2.10
2020,12,04,07,43,2.10
2020,12,04,07,44,2.10
2020,12,04,07,45,2.10
2020,12,04,07,46,2.10
2020,12,04,07,47,2.10
2020,12,04,07,48,2.20
2020,12,04,07,49,2.20
2020,12,04,07,50,2.20
2020,12,04,07,51,2.20
2020,12,04,07,52,2.20
2020,12,04,07,53,2.20
2020,12,04,07,54,2.20
2020,12,04,07,55,2.20
2020,12,04,07,56,2.20
2020,12,04,07,57,2.20
2020,12,04,07,58,2.20
2020,12,04,07,59,2.20
2020,12,04,08,00,2.20
2020,12,04,08,01,2.20
2020,12,04,08,02,2.10
2020,12,04,08,03,2.10
2020,12,04,08,04,2.10
2020,12,04,08,05,2.10
2020,12,04,08,06,2.10
2020,12,04,08,07,2.10
2020,12,04,08,08,2.10
2020,12,04,08,09,2.10
2020,12,04,08,10,2.10
2020,12,04,08,11,2.10
2020,12,04,08,12,2.10
2020,12,04,08,13,2.10
2020,12,04,08,14,2.10
2020,12,04,08,15,2.10
2020,12,04,08,16,2.10
2020,12,04,08,17,2.10
2020,12,04,08,18,2.10
2020,12,04,08,19,2.10
2020,12,04,08,20,2.10
2020,12,04,08,21,2.10
2020,12,04,08,22,2.10
2020,12,04,08,23,2.10
2020,12,04,08,24,2.10
2020,12,04,08,25,2.20
2020,12,04,08,26,2.20
2020,12,04,08,27,2.20
2020,12,04,08,28,2.20
2020,12,04,08,29,2.20
2020,12,04,08,30,2.20
2020,12,04,08,31,2.20
2020,12,04,08,32,2.20
2020,12,04,08,33,2.30
2020,12,04,08,34,2.30
2020,12,04,08,35,2.30
2020,12,04,08,36,2.30
2020,12,04,08,37,2.30
2020,12,04,08,38,2.30
2020,12,04,08,39,2.30
2020,12,04,08,40,2.30
2020,12,04,08,41,2.30
2020,12,04,08,42,2.30
2020,12,04,08,43,2.30
2020,12,04,08,44,2.30
2020,12,04,08,45,2.30
2020,12,04,08,46,2.30
2020,12,04,08,47,2.40
2020,12,04,08,48,2.40
2020,12,04,08,49,2.40
2020,12,04,08,50,2.40
2020,12,04,08,51,2.40
2020,12,04,08,52,2.40
2020,12,04,08,53,2.40
2020,12,04,08,54,2.40
2020,12,04,08,55,2.40
2020,12,04,08,56,2.40
2020,12,04,08,57,2.40
2020,12,04,08,58,2.50
2020,12,04,08,59,2.50
2020,12,04,09,00,2.50
2020,12,04,09,01,2.50
2020,12,04,09,02,2.50
2020,12,04,09,03,2.50
2020,12,04,09,04,2.60
2020,12,04,09,05,2.60
2020,12,04,09,06,2.60
2020,12,04,09,07,2.60
2020,12,04,09,08,2.70
2020,12,04,09,09,2.80
2020,12,04,09,10,2.80
2020,12,04,09,11,2.90
2020,12,04,09,12,3.00
2020,12,04,09,13,3.10
2020,12,04,09,14,3.10
2020,12,04,09,15,3.20
2020,12,04,09,16,3.30
2020,12,04,09,17,3.40
2020,12,04,09,18,3.40
2020,12,04,09,19,3.50
2020,12,04,09,20,3.50
2020,12,04,09,21,3.60
2020,12,04,09,22,3.70
2020,12,04,09,23,3.80
2020,12,04,09,24,3.80
2020,12,04,09,25,3.90
2020,12,04,09,26,4.00
2020,12,04,09,27,4.10
2020,12,04,09,28,4.10
2020,12,04,09,29,4.10
2020,12,04,09,30,4.10
2020,12,04,09,31,4.10
2020,12,04,09,32,4.10
2020,12,04,09,33,4.10
2020,12,04,09,34,4.10
2020,12,04,09,35,4.10
2020,12,04,09,36,4.20
2020,12,04,09,37,4.20
2020,12,04,09,38,4.30
2020,12,04,09,39,4.30
2020,12,04,09,40,4.30
2020,12,04,09,41,4.40
2020,12,04,09,42,4.40
2020,12,04,09,43,4.50
2020,12,04,09,44,4.60
2020,12,04,09,45,4.70
2020,12,04,09,46,4.70
2020,12,04,09,47,4.80
2020,12,04,09,48,4.80
2020,12,04,09,49,4.80
2020,12,04,09,50,4.90
2020,12,04,09,51,5.00
2020,12,04,09,52,5.00
2020,12,04,09,53,5.10
2020,12,04,09,54,5.20
2020,12,04,09,55,5.20
2020,12,04,09,56,5.30
2020,12,04,09,57,5.30
2020,12,04,09,58,5.40
2020,12,04,09,59,5.40
2020,12,04,10,00,5.50
2020,12,04,10,01,5.60
2020,12,04,10,02,5.70
2020,12,04,10,03,5.70
2020,12,04,10,04,5.80
2020,12,04,10,05,5.90
2020,12,04,10,06,6.00
2020,12,04,10,07,6.10
2020,12,04,10,08,6.20
2020,12,04,10,09,6.30
2020,12,04,10,10,6.30
2020,12,04,10,11,6.40
2020,12,04,10,12,6.40
2020,12,04,10,13,6.50
2020,12,04,10,14,6.60
2020,12,04,10,15,6.50
2020,12,04,10,16,6.50
2020,12,04,10,17,6.40
2020,12,04,10,18,6.40
2020,12,04,10,19,6.40
2020,12,04,10,20,6.40
2020,12,04,10,21,6.40
2020,12,04,10,22,6.40
2020,12,04,10,23,6.50
2020,12,04,10,24,6.50
2020,12,04,10,25,6.40
2020,12,04,10,26,6.40
2020,12,04,10,27,6.50
2020,12,04,10,28,6.50
2020,12,04,10,29,6.60
2020,12,04,10,30,6.70
2020,12,04,10,31,6.70
2020,12,04,10,32,6.80
2020,12,04,10,33,6.80
2020,12,04,10,34,6.90
2020,12,04,10,35,6.90
2020,12,04,10,36,7.00
2020,12,04,10,37,7.10
2020,12,04,10,38,7.10
2020,12,04,10,39,7.10
2020,12,04,10,40,7.20
2020,12,04,10,41,7.20
2020,12,04,10,42,7.20
2020,12,04,10,43,7.10
2020,12,04,10,44,7.10
2020,12,04,10,45,7.10
2020,12,04,10,46,7.10
2020,12,04,10,47,7.10
2020,12,04,10,48,7.10
2020,12,04,10,49,7.10
2020,12,04,10,50,7.10
2020,12,04,10,51,7.10
2020,12,04,10,52,7.20
2020,12,04,10,53,7.30
2020,12,04,10,54,7.30
2020,12,04,10,55,7.40
2020,12,04,10,56,7.40
2020,12,04,10,57,7.50
2020,12,04,10,58,7.60
2020,12,04,10,59,7.60
2020,12,04,11,00,7.70
2020,12,04,11,01,7.70
2020,12,04,11,02,7.80
2020,12,04,11,03,7.80
2020,12,04,11,04,7.80
2020,12,04,11,05,7.90
2020,12,04,11,06,8.00
2020,12,04,11,07,8.00
2020,12,04,11,08,8.00
2020,12,04,11,09,8.10
2020,12,04,11,10,8.20
2020,12,04,11,11,8.20
2020,12,04,11,12,8.30
2020,12,04,11,13,8.30
2020,12,04,11,14,8.40
2020,12,04,11,15,8.50
2020,12,04,11,16,8.60
2020,12,04,11,17,8.60
2020,12,04,11,18,8.60
2020,12,04,11,19,8.60
2020,12,04,11,20,8.70
2020,12,04,11,21,8.80
2020,12,04,11,22,8.80
2020,12,04,11,23,8.80
2020,12,04,11,24,8.80
2020,12,04,11,25,8.90
2020,12,04,11,26,9.00
2020,12,04,11,27,9.00
2020,12,04,11,28,9.10
2020,12,04,11,29,9.10
2020,12,04,11,30,9.10
2020,12,04,11,31,9.20
2020,12,04,11,32,9.20
2020,12,04,11,33,9.30
2020,12,04,11,34,9.30
2020,12,04,11,35,9.40
2020,12,04,11,36,9.40
2020,12,04,11,37,9.50
2020,12,04,11,38,9.50
2020,12,04,11,39,9.60
2020,12,04,11,40,9.60
2020,12,04,11,41,9.60
2020,12,04,11,42,9.70
2020,12,04,11,43,9.70
2020,12,04,11,44,9.80
2020,12,04,11,45,9.80
2020,12,04,11,46,9.80
2020,12,04,11,47,9.90
2020,12,04,11,48,9.90
2020,12,04,11,49,9.90
2020,12,04,11,50,9.90
2020,12,04,11,51,10.00
2020,12,04,11,52,10.00
2020,12,04,11,53,10.10
2020,12,04,11,54,10.10
2020,12,04,11,55,10.10
2020,12,04,11,56,10.10
2020,12,04,11,57,10.10
2020,12,04,11,58,10.20
2020,12,04,11,59,10.20
2020,12,04,12,00,10.20
2020,12,04,12,01,10.30
2020,12,04,12,02,10.30
2020,12,04,12,03,10.30
2020,12,04,12,04,10.40
2020,12,04,12,05,10.50
2020,12,04,12,06,10.50
2020,12,04,12,07,10.50
2020,12,04,12,08,10.50
2020,12,04,12,09,10.50
2020,12,04,12,10,10.50
2020,12,04,12,11,10.50
2020,12,04,12,12,10.60
2020,12,04,12,13,10.60
2020,12,04,12,14,10.60
2020,12,04,12,15,10.70
2020,12,04,12,16,10.70
2020,12,04,12,17,10.70
2020,12,04,12,18,10.70
2020,12,04,12,19,10.70
2020,12,04,12,20,10.80
2020,12,04,12,21,10.80
2020,12,04,12,22,10.80
2020,12,04,12,23,10.80
2020,12,04,12,24,10.80
2020,12,04,12,25,10.80
2020,12,04,12,26,10.80
2020,12,04,12,27,10.80
2020,12,04,12,28,10.90
2020,12,04,12,29,10.90
2020,12,04,12,30,10.90
2020,12,04,12,31,10.90
2020,12,04,12,32,10.90
2020,12,04,12,33,10.90
2020,12,04,12,34,10.90
2020,12,04,12,35,11.00
2020,12,04,12,36,11.00
2020,12,04,12,37,11.10
2020,12,04,12,38,11.10
2020,12,04,12,39,11.10
2020,12,04,12,40,11.10
2020,12,04,12,41,11.10
2020,12,04,12,42,11.10
2020,12,04,12,43,11.20
2020,12,04,12,44,11.10
2020,12,04,12,45,11.10
2020,12,04,12,46,11.10
2020,12,04,12,47,11.20
2020,12,04,12,48,11.20
2020,12,04,12,49,11.20
2020,12,04,12,50,11.20
2020,12,04,12,51,11.30
2020,12,04,12,52,11.20
2020,12,04,12,53,11.20
2020,12,04,12,54,11.20
2020,12,04,12,55,11.20
2020,12,04,12,56,11.30
2020,12,04,12,57,11.30
2020,12,04,12,58,11.20
2020,12,04,12,59,11.20
2020,12,04,13,00,11.20
2020,12,04,13,01,11.20
2020,12,04,13,02,11.20
2020,12,04,13,03,11.20
2020,12,04,13,04,11.20
2020,12,04,13,05,11.20
2020,12,04,13,06,11.20
2020,12,04,13,07,11.20
2020,12,04,13,08,11.20
2020,12,04,13,09,11.10
2020,12,04,13,10,11.10
2020,12,04,13,11,11.10
2020,12,04,13,12,11.10
2020,12,04,13,13,11.10
2020,12,04,13,14,11.10
2020,12,04,13,15,11.10
2020,12,04,13,16,11.10
2020,12,04,13,17,11.10
2020,12,04,13,18,11.20
2020,12,04,13,19,11.20
2020,12,04,13,20,11.20
2020,12,04,13,21,11.30
2020,12,04,13,22,11.30
2020,12,04,13,23,11.40
2020,12,04,13,24,11.40
2020,12,04,13,25,11.50
2020,12,04,13,26,11.50
2020,12,04,13,27,11.50
2020,12,04,13,28,11.60
2020,12,04,13,29,11.60
2020,12,04,13,30,11.60
2020,12,04,13,31,11.60
2020,12,04,13,32,11.60
2020,12,04,13,33,11.50
2020,12,04,13,34,11.50
2020,12,04,13,35,11.60
2020,12,04,13,36,11.60
2020,12,04,13,37,11.60
2020,12,04,13,38,11.60
2020,12,04,13,39,11.60
2020,12,04,13,40,11.60
2020,12,04,13,41,11.60
2020,12,04,13,42,11.60
2020,12,04,13,43,11.60
2020,12,04,13,44,11.60
2020,12,04,13,45,11.70
2020,12,04,13,46,11.70
2020,12,04,13,47,11.60
2020,12,04,13,48,11.60
2020,12,04,13,49,11.60
2020,12,04,13,50,11.60
2020,12,04,13,51,11.50
2020,12,04,13,52,11.40
2020,12,04,13,53,11.40
2020,12,04,13,54,11.40
2020,12,04,13,55,11.40
2020,12,04,13,56,11.30
2020,12,04,13,57,11.40
2020,12,04,13,58,11.30
2020,12,04,13,59,11.20
2020,12,04,14,00,11.20
2020,12,04,14,01,11.10
2020,12,04,14,02,11.00
2020,12,04,14,03,11.00
2020,12,04,14,04,10.90
2020,12,04,14,05,10.90
2020,12,04,14,06,10.80
2020,12,04,14,07,10.70
2020,12,04,14,08,10.70
2020,12,04,14,09,10.60
2020,12,04,14,10,10.50
2020,12,04,14,11,10.40
2020,12,04,14,12,10.40
2020,12,04,14,13,10.30
2020,12,04,14,14,10.30
2020,12,04,14,15,10.20
2020,12,04,14,16,10.20
2020,12,04,14,17,10.10
2020,12,04,14,18,10.10
2020,12,04,14,19,10.10
2020,12,04,14,20,10.10
2020,12,04,14,21,10.10
2020,12,04,14,22,10.10
2020,12,04,14,23,10.10
2020,12,04,14,24,10.10
2020,12,04,14,25,10.10
2020,12,04,14,26,10.10
2020,12,04,14,27,10.00
2020,12,04,14,28,10.00
2020,12,04,14,29,10.00
2020,12,04,14,30,10.00
2020,12,04,14,31,10.00
2020,12,04,14,32,9.90
2020,12,04,14,33,9.90
2020,12,04,14,34,9.90
2020,12,04,14,35,9.90
2020,12,04,14,36,9.90
2020,12,04,14,37,9.90
2020,12,04,14,38,9.90
2020,12,04,14,39,9.80
2020,12,04,14,40,9.80
2020,12,04,14,41,9.80
2020,12,04,14,42,9.80
2020,12,04,14,43,9.80
2020,12,04,14,44,9.80
2020,12,04,14,45,9.80
2020,12,04,14,46,9.80
2020,12,04,14,47,9.80
2020,12,04,14,48,9.80
2020,12,04,14,49,9.80
2020,12,04,14,50,9.80
2020,12,04,14,51,9.70
2020,12,04,14,52,9.70
2020,12,04,14,53,9.70
2020,12,04,14,54,9.70
2020,12,04,14,55,9.70
2020,12,04,14,56,9.70
2020,12,04,14,57,9.70
2020,12,04,14,58,9.70
2020,12,04,14,59,9.70
2020,12,04,15,00,9.60
2020,12,04,15,01,9.60
2020,12,04,15,02,9.60
2020,12,04,15,03,9.60
2020,12,04,15,04,9.60
2020,12,04,15,05,9.60
2020,12,04,15,06,9.60
2020,12,04,15,07,9.60
2020,12,04,15,08,9.60
2020,12,04,15,09,9.60
2020,12,04,15,10,9.60
2020,12,04,15,11,9.60
2020,12,04,15,12,9.60
2020,12,04,15,13,9.60
2020,12,04,15,14,9.50
2020,12,04,15,15,9.50
2020,12,04,15,16,9.50
2020,12,04,15,17,9.50
2020,12,04,15,18,9.50
2020,12,04,15,19,9.40
2020,12,04,15,20,9.40
2020,12,04,15,21,9.40
2020,12,04,15,22,9.40
2020,12,04,15,23,9.30
2020,12,04,15,24,9.30
2020,12,04,15,25,9.30
2020,12,04,15,26,9.30
2020,12,04,15,27,9.30
2020,12,04,15,28,9.30
2020,12,04,15,29,9.30
2020,12,04,15,30,9.30
2020,12,04,15,31,9.30
2020,12,04,15,32,9.30
2020,12,04,15,33,9.30
2020,12,04,15,34,9.30
2020,12,04,15,35,9.30
2020,12,04,15,36,9.40
2020,12,04,15,37,9.40
2020,12,04,15,38,9.40
2020,12,04,15,39,9.40
2020,12,04,15,40,9.40
2020,12,04,15,41,9.40
2020,12,04,15,42,9.40
2020,12,04,15,43,9.40
2020,12,04,15,44,9.40
2020,12,04,15,45,9.30
2020,12,04,15,46,9.30
2020,12,04,15,47,9.30
2020,12,04,15,48,9.30
2020,12,04,15,49,9.30
2020,12,04,15,50,9.30
2020,12,04,15,51,9.20
2020,12,04,15,52,9.20
2020,12,04,15,53,9.20
2020,12,04,15,54,9.10
2020,12,04,15,55,9.10
2020,12,04,15,56,9.10
2020,12,04,15,57,9.10
2020,12,04,15,58,9.10
2020,12,04,15,59,9.00
2020,12,04,16,00,9.00
2020,12,04,16,01,8.90
2020,12,04,16,02,8.90
2020,12,04,16,03,8.90
2020,12,04,16,04,8.80
2020,12,04,16,05,8.80
2020,12,04,16,06,8.70
2020,12,04,16,07,8.70
2020,12,04,16,08,8.70
2020,12,04,16,09,8.60
2020,12,04,16,10,8.60
2020,12,04,16,11,8.50
2020,12,04,16,12,8.50
2020,12,04,16,13,8.40
2020,12,04,16,14,8.40
2020,12,04,16,15,8.30
2020,12,04,16,16,8.30
2020,12,04,16,17,8.30
2020,12,04,16,18,8.30
2020,12,04,16,19,8.30
2020,12,04,16,20,8.20
2020,12,04,16,21,8.20
2020,12,04,16,22,8.10
2020,12,04,16,23,8.10
2020,12,04,16,24,8.00
2020,12,04,16,25,8.00
2020,12,04,16,26,7.90
2020,12,04,16,27,7.90
2020,12,04,16,28,7.80
2020,12,04,16,29,7.80
2020,12,04,16,30,7.80
2020,12,04,16,31,7.70
2020,12,04,16,32,7.70
2020,12,04,16,33,7.70
2020,12,04,16,34,7.60
2020,12,04,16,35,7.60
2020,12,04,16,36,7.50
2020,12,04,16,37,7.50
2020,12,04,16,38,7.50
2020,12,04,16,39,7.40
2020,12,04,16,40,7.40
2020,12,04,16,41,7.40
2020,12,04,16,42,7.40
2020,12,04,16,43,7.30
2020,12,04,16,44,7.30
2020,12,04,16,45,7.30
2020,12,04,16,46,7.30
2020,12,04,16,47,7.20
2020,12,04,16,48,7.20
2020,12,04,16,49,7.20
2020,12,04,16,50,7.10
2020,12,04,16,51,7.10
2020,12,04,16,52,7.00
2020,12,04,16,53,7.00
2020,12,04,16,54,6.90
2020,12,04,16,55,6.90
2020,12,04,16,56,6.90
2020,12,04,16,57,6.80
2020,12,04,16,58,6.80
2020,12,04,16,59,6.80
2020,12,04,17,00,6.70
2020,12,04,17,01,6.70
2020,12,04,17,02,6.70
2020,12,04,17,03,6.60
2020,12,04,17,04,6.60
2020,12,04,17,05,6.60
2020,12,04,17,06,6.50
2020,12,04,17,07,6.50
2020,12,04,17,08,6.40
2020,12,04,17,09,6.40
2020,12,04,17,10,6.30
2020,12,04,17,11,6.30
2020,12,04,17,12,6.30
2020,12,04,17,13,6.30
2020,12,04,17,14,6.20
2020,12,04,17,15,6.20
2020,12,04,17,16,6.10
2020,12,04,17,17,6.10
2020,12,04,17,18,6.10
2020,12,04,17,19,6.10
2020,12,04,17,20,6.00
2020,12,04,17,21,6.00
2020,12,04,17,22,5.90
2020,12,04,17,23,5.90
2020,12,04,17,24,5.90
2020,12,04,17,25,5.90
2020,12,04,17,26,5.90
2020,12,04,17,27,5.80
2020,12,04,17,28,5.80
2020,12,04,17,29,5.80
2020,12,04,17,30,5.80
2020,12,04,17,31,5.80
2020,12,04,17,32,5.80
2020,12,04,17,33,5.70
2020,12,04,17,34,5.70
2020,12,04,17,35,5.70
2020,12,04,17,36,5.70
2020,12,04,17,37,5.70
2020,12,04,17,38,5.70
2020,12,04,17,39,5.70
2020,12,04,17,40,5.70
2020,12,04,17,41,5.70
2020,12,04,17,42,5.70
2020,12,04,17,43,5.70
2020,12,04,17,44,5.60
2020,12,04,17,45,5.60
2020,12,04,17,46,5.60
2020,12,04,17,47,5.60
2020,12,04,17,48,5.50
2020,12,04,17,49,5.50
2020,12,04,17,50,5.40
2020,12,04,17,51,5.40
2020,12,04,17,52,5.40
2020,12,04,17,53,5.40
2020,12,04,17,54,5.30
2020,12,04,17,55,5.30
2020,12,04,17,56,5.30
2020,12,04,17,57,5.30
2020,12,04,17,58,5.30
2020,12,04,17,59,5.30